Year,Month,Day,Hour,Minute,Value (Times are PST for temperature in C)
2006,02,21,00,00,2.80
2006,02,21,00,01,2.80
2006,02,21,00,02,2.80
2006,02,21,00,03,2.80
2006,02,21,00,04,2.80
2006,02,21,00,05,2.80
2006,02,21,00,06,2.80
2006,02,21,00,07,2.70
2006,02,21,00,08,2.70
2006,02,21,00,09,2.70
2006,02,21,00,10,2.70
2006,02,21,00,11,2.70
2006,02,21,00,12,2.70
2006,02,21,00,13,2.70
2006,02,21,00,14,2.70
2006,02,21,00,15,2.70
2006,02,21,00,16,2.70
2006,02,21,00,17,2.70
2006,02,21,00,18,2.70
2006,02,21,00,19,2.70
2006,02,21,00,20,2.70
2006,02,21,00,21,2.70
2006,02,21,00,22,2.70
2006,02,21,00,23,2.70
2006,02,21,00,24,2.70
2006,02,21,00,25,2.70
2006,02,21,00,26,2.70
2006,02,21,00,27,2.70
2006,02,21,00,28,2.70
2006,02,21,00,29,2.70
2006,02,21,00,30,2.70
2006,02,21,00,31,2.70
2006,02,21,00,32,2.60
2006,02,21,00,33,2.60
2006,02,21,00,34,2.70
2006,02,21,00,35,2.60
2006,02,21,00,36,2.70
2006,02,21,00,37,2.70
2006,02,21,00,38,2.70
2006,02,21,00,39,2.70
2006,02,21,00,40,2.60
2006,02,21,00,41,2.60
2006,02,21,00,42,2.60
2006,02,21,00,43,2.60
2006,02,21,00,44,2.60
2006,02,21,00,45,2.60
2006,02,21,00,46,2.60
2006,02,21,00,47,2.60
2006,02,21,00,48,2.60
2006,02,21,00,49,2.60
2006,02,21,00,50,2.60
2006,02,21,00,51,2.60
2006,02,21,00,52,2.60
2006,02,21,00,53,2.60
2006,02,21,00,54,2.60
2006,02,21,00,55,2.60
2006,02,21,00,56,2.60
2006,02,21,00,57,2.60
2006,02,21,00,58,2.60
2006,02,21,00,59,2.60
2006,02,21,01,00,2.60
2006,02,21,01,01,2.60
2006,02,21,01,02,2.60
2006,02,21,01,03,2.60
2006,02,21,01,04,2.60
2006,02,21,01,05,2.60
2006,02,21,01,06,2.60
2006,02,21,01,07,2.60
2006,02,21,01,08,2.60
2006,02,21,01,09,2.60
2006,02,21,01,10,2.60
2006,02,21,01,11,2.60
2006,02,21,01,12,2.60
2006,02,21,01,13,2.60
2006,02,21,01,14,2.60
2006,02,21,01,15,2.60
2006,02,21,01,16,2.60
2006,02,21,01,17,2.60
2006,02,21,01,18,2.60
2006,02,21,01,19,2.60
2006,02,21,01,20,2.60
2006,02,21,01,21,2.60
2006,02,21,01,22,2.60
2006,02,21,01,23,2.60
2006,02,21,01,24,2.50
2006,02,21,01,25,2.50
2006,02,21,01,26,2.50
2006,02,21,01,27,2.50
2006,02,21,01,28,2.50
2006,02,21,01,29,2.50
2006,02,21,01,30,2.50
2006,02,21,01,31,2.50
2006,02,21,01,32,2.40
2006,02,21,01,33,2.40
2006,02,21,01,34,2.40
2006,02,21,01,35,2.50
2006,02,21,01,36,2.40
2006,02,21,01,37,2.40
2006,02,21,01,38,2.50
2006,02,21,01,39,2.50
2006,02,21,01,40,2.40
2006,02,21,01,41,2.50
2006,02,21,01,42,2.50
2006,02,21,01,43,2.40
2006,02,21,01,44,2.40
2006,02,21,01,45,2.40
2006,02,21,01,46,2.40
2006,02,21,01,47,2.40
2006,02,21,01,48,2.40
2006,02,21,01,49,2.40
2006,02,21,01,50,2.40
2006,02,21,01,51,2.40
2006,02,21,01,52,2.40
2006,02,21,01,53,2.40
2006,02,21,01,54,2.40
2006,02,21,01,55,2.40
2006,02,21,01,56,2.40
2006,02,21,01,57,2.40
2006,02,21,01,58,2.40
2006,02,21,01,59,2.40
2006,02,21,02,00,2.40
2006,02,21,02,01,2.40
2006,02,21,02,02,2.40
2006,02,21,02,03,2.40
2006,02,21,02,04,2.40
2006,02,21,02,05,2.40
2006,02,21,02,06,2.40
2006,02,21,02,07,2.40
2006,02,21,02,08,2.40
2006,02,21,02,09,2.40
2006,02,21,02,10,2.40
2006,02,21,02,11,2.40
2006,02,21,02,12,2.30
2006,02,21,02,13,2.30
2006,02,21,02,14,2.30
2006,02,21,02,15,2.30
2006,02,21,02,16,2.30
2006,02,21,02,17,2.30
2006,02,21,02,18,2.30
2006,02,21,02,19,2.20
2006,02,21,02,20,2.20
2006,02,21,02,21,2.20
2006,02,21,02,22,2.20
2006,02,21,02,23,2.20
2006,02,21,02,24,2.30
2006,02,21,02,25,2.30
2006,02,21,02,26,2.30
2006,02,21,02,27,2.30
2006,02,21,02,28,2.30
2006,02,21,02,29,2.30
2006,02,21,02,30,2.30
2006,02,21,02,31,2.30
2006,02,21,02,32,2.30
2006,02,21,02,33,2.30
2006,02,21,02,34,2.30
2006,02,21,02,35,2.30
2006,02,21,02,36,2.30
2006,02,21,02,37,2.30
2006,02,21,02,38,2.30
2006,02,21,02,39,2.30
2006,02,21,02,40,2.20
2006,02,21,02,41,2.20
2006,02,21,02,42,2.20
2006,02,21,02,43,2.20
2006,02,21,02,44,2.20
2006,02,21,02,45,2.20
2006,02,21,02,46,2.20
2006,02,21,02,47,2.20
2006,02,21,02,48,2.20
2006,02,21,02,49,2.10
2006,02,21,02,50,2.10
2006,02,21,02,51,2.10
2006,02,21,02,52,2.10
2006,02,21,02,53,2.10
2006,02,21,02,54,2.10
2006,02,21,02,55,2.10
2006,02,21,02,56,2.00
2006,02,21,02,57,2.00
2006,02,21,02,58,2.00
2006,02,21,02,59,2.00
2006,02,21,03,00,1.90
2006,02,21,03,01,1.90
2006,02,21,03,02,1.90
2006,02,21,03,03,1.90
2006,02,21,03,04,1.90
2006,02,21,03,05,1.90
2006,02,21,03,06,1.80
2006,02,21,03,07,1.80
2006,02,21,03,08,1.80
2006,02,21,03,09,1.80
2006,02,21,03,10,1.80
2006,02,21,03,11,1.80
2006,02,21,03,12,1.80
2006,02,21,03,13,1.80
2006,02,21,03,14,1.80
2006,02,21,03,15,1.70
2006,02,21,03,16,1.70
2006,02,21,03,17,1.70
2006,02,21,03,18,1.70
2006,02,21,03,19,1.70
2006,02,21,03,20,1.70
2006,02,21,03,21,1.60
2006,02,21,03,22,1.60
2006,02,21,03,23,1.60
2006,02,21,03,24,1.60
2006,02,21,03,25,1.50
2006,02,21,03,26,1.50
2006,02,21,03,27,1.50
2006,02,21,03,28,1.50
2006,02,21,03,29,1.50
2006,02,21,03,30,1.40
2006,02,21,03,31,1.40
2006,02,21,03,32,1.40
2006,02,21,03,33,1.30
2006,02,21,03,34,1.30
2006,02,21,03,35,1.30
2006,02,21,03,36,1.30
2006,02,21,03,37,1.30
2006,02,21,03,38,1.30
2006,02,21,03,39,1.30
2006,02,21,03,40,1.20
2006,02,21,03,41,1.20
2006,02,21,03,42,1.20
2006,02,21,03,43,1.20
2006,02,21,03,44,1.20
2006,02,21,03,45,1.10
2006,02,21,03,46,1.10
2006,02,21,03,47,1.10
2006,02,21,03,48,1.10
2006,02,21,03,49,1.10
2006,02,21,03,50,1.00
2006,02,21,03,51,1.00
2006,02,21,03,52,1.00
2006,02,21,03,53,1.00
2006,02,21,03,54,1.00
2006,02,21,03,55,1.00
2006,02,21,03,56,1.00
2006,02,21,03,57,1.00
2006,02,21,03,58,0.90
2006,02,21,03,59,0.90
2006,02,21,04,00,0.90
2006,02,21,04,01,0.90
2006,02,21,04,02,0.90
2006,02,21,04,03,0.80
2006,02,21,04,04,0.80
2006,02,21,04,05,0.80
2006,02,21,04,06,0.80
2006,02,21,04,07,0.80
2006,02,21,04,08,0.80
2006,02,21,04,09,0.80
2006,02,21,04,10,0.80
2006,02,21,04,11,0.80
2006,02,21,04,12,0.80
2006,02,21,04,13,0.80
2006,02,21,04,14,0.80
2006,02,21,04,15,0.80
2006,02,21,04,16,0.70
2006,02,21,04,17,0.70
2006,02,21,04,18,0.80
2006,02,21,04,19,0.80
2006,02,21,04,20,0.80
2006,02,21,04,21,0.80
2006,02,21,04,22,0.80
2006,02,21,04,23,0.80
2006,02,21,04,24,0.70
2006,02,21,04,25,0.70
2006,02,21,04,26,0.70
2006,02,21,04,27,0.70
2006,02,21,04,28,0.70
2006,02,21,04,29,0.70
2006,02,21,04,30,0.70
2006,02,21,04,31,0.70
2006,02,21,04,32,0.60
2006,02,21,04,33,0.60
2006,02,21,04,34,0.60
2006,02,21,04,35,0.60
2006,02,21,04,36,0.50
2006,02,21,04,37,0.50
2006,02,21,04,38,0.40
2006,02,21,04,39,0.40
2006,02,21,04,40,0.40
2006,02,21,04,41,0.40
2006,02,21,04,42,0.30
2006,02,21,04,43,0.30
2006,02,21,04,44,0.30
2006,02,21,04,45,0.30
2006,02,21,04,46,0.30
2006,02,21,04,47,0.30
2006,02,21,04,48,0.30
2006,02,21,04,49,0.30
2006,02,21,04,50,0.30
2006,02,21,04,51,0.30
2006,02,21,04,52,0.20
2006,02,21,04,53,0.20
2006,02,21,04,54,0.20
2006,02,21,04,55,0.20
2006,02,21,04,56,0.20
2006,02,21,04,57,0.20
2006,02,21,04,58,0.20
2006,02,21,04,59,0.20
2006,02,21,05,00,0.20
2006,02,21,05,01,0.20
2006,02,21,05,02,0.20
2006,02,21,05,03,0.10
2006,02,21,05,04,0.10
2006,02,21,05,05,0.10
2006,02,21,05,06,0.10
2006,02,21,05,07,0.10
2006,02,21,05,08,0.10
2006,02,21,05,09,0.10
2006,02,21,05,10,0.10
2006,02,21,05,11,0.00
2006,02,21,05,12,0.00
2006,02,21,05,13,0.00
2006,02,21,05,14,0.00
2006,02,21,05,15,0.00
2006,02,21,05,16,0.00
2006,02,21,05,17,0.00
2006,02,21,05,18,0.00
2006,02,21,05,19,0.00
2006,02,21,05,20,0.00
2006,02,21,05,21,0.00
2006,02,21,05,22,0.00
2006,02,21,05,23,0.00
2006,02,21,05,24,0.00
2006,02,21,05,25,0.00
2006,02,21,05,26,0.00
2006,02,21,05,27,-0.10
2006,02,21,05,28,-0.10
2006,02,21,05,29,-0.10
2006,02,21,05,30,-0.10
2006,02,21,05,31,-0.10
2006,02,21,05,32,-0.10
2006,02,21,05,33,-0.10
2006,02,21,05,34,-0.10
2006,02,21,05,35,-0.20
2006,02,21,05,36,-0.20
2006,02,21,05,37,-0.20
2006,02,21,05,38,-0.20
2006,02,21,05,39,-0.20
2006,02,21,05,40,-0.20
2006,02,21,05,41,-0.20
2006,02,21,05,42,-0.20
2006,02,21,05,43,-0.20
2006,02,21,05,44,-0.20
2006,02,21,05,45,-0.20
2006,02,21,05,46,-0.20
2006,02,21,05,47,-0.20
2006,02,21,05,48,-0.10
2006,02,21,05,49,-0.10
2006,02,21,05,50,0.00
2006,02,21,05,51,0.00
2006,02,21,05,52,0.00
2006,02,21,05,53,0.00
2006,02,21,05,54,-0.10
2006,02,21,05,55,-0.10
2006,02,21,05,56,-0.10
2006,02,21,05,57,-0.10
2006,02,21,05,58,-0.10
2006,02,21,05,59,-0.20
2006,02,21,06,00,-0.20
2006,02,21,06,01,-0.20
2006,02,21,06,02,-0.20
2006,02,21,06,03,-0.20
2006,02,21,06,04,-0.20
2006,02,21,06,05,-0.20
2006,02,21,06,06,-0.20
2006,02,21,06,07,-0.20
2006,02,21,06,08,-0.20
2006,02,21,06,09,-0.20
2006,02,21,06,10,-0.20
2006,02,21,06,11,-0.20
2006,02,21,06,12,-0.20
2006,02,21,06,13,-0.20
2006,02,21,06,14,-0.30
2006,02,21,06,15,-0.30
2006,02,21,06,16,-0.30
2006,02,21,06,17,-0.30
2006,02,21,06,18,-0.30
2006,02,21,06,19,-0.30
2006,02,21,06,20,-0.30
2006,02,21,06,21,-0.30
2006,02,21,06,22,-0.30
2006,02,21,06,23,-0.30
2006,02,21,06,24,-0.30
2006,02,21,06,25,-0.30
2006,02,21,06,26,-0.30
2006,02,21,06,27,-0.30
2006,02,21,06,28,-0.30
2006,02,21,06,29,-0.30
2006,02,21,06,30,-0.20
2006,02,21,06,31,-0.20
2006,02,21,06,32,-0.20
2006,02,21,06,33,-0.20
2006,02,21,06,34,-0.20
2006,02,21,06,35,-0.20
2006,02,21,06,36,-0.20
2006,02,21,06,37,-0.20
2006,02,21,06,38,-0.20
2006,02,21,06,39,-0.20
2006,02,21,06,40,-0.20
2006,02,21,06,41,-0.20
2006,02,21,06,42,-0.20
2006,02,21,06,43,-0.20
2006,02,21,06,44,-0.20
2006,02,21,06,45,-0.20
2006,02,21,06,46,-0.20
2006,02,21,06,47,-0.20
2006,02,21,06,48,-0.20
2006,02,21,06,49,-0.20
2006,02,21,06,50,-0.20
2006,02,21,06,51,-0.20
2006,02,21,06,52,-0.10
2006,02,21,06,53,-0.10
2006,02,21,06,54,-0.10
2006,02,21,06,55,-0.10
2006,02,21,06,56,-0.10
2006,02,21,06,57,-0.10
2006,02,21,06,58,-0.10
2006,02,21,06,59,-0.10
2006,02,21,07,00,-0.10
2006,02,21,07,01,-0.10
2006,02,21,07,02,-0.10
2006,02,21,07,03,-0.10
2006,02,21,07,04,-0.10
2006,02,21,07,05,-0.10
2006,02,21,07,06,-0.10
2006,02,21,07,07,-0.10
2006,02,21,07,08,-0.10
2006,02,21,07,09,0.00
2006,02,21,07,10,0.00
2006,02,21,07,11,0.00
2006,02,21,07,12,0.00
2006,02,21,07,13,0.00
2006,02,21,07,14,0.00
2006,02,21,07,15,0.00
2006,02,21,07,16,0.00
2006,02,21,07,17,0.10
2006,02,21,07,18,0.10
2006,02,21,07,19,0.10
2006,02,21,07,20,0.10
2006,02,21,07,21,0.10
2006,02,21,07,22,0.10
2006,02,21,07,23,0.10
2006,02,21,07,24,0.10
2006,02,21,07,25,0.10
2006,02,21,07,26,0.10
2006,02,21,07,27,0.10
2006,02,21,07,28,0.10
2006,02,21,07,29,0.10
2006,02,21,07,30,0.10
2006,02,21,07,31,0.10
2006,02,21,07,32,0.10
2006,02,21,07,33,0.10
2006,02,21,07,34,0.10
2006,02,21,07,35,0.10
2006,02,21,07,36,0.00
2006,02,21,07,37,0.00
2006,02,21,07,38,0.00
2006,02,21,07,39,0.00
2006,02,21,07,40,0.00
2006,02,21,07,41,0.00
2006,02,21,07,42,0.00
2006,02,21,07,43,0.00
2006,02,21,07,44,0.00
2006,02,21,07,45,0.00
2006,02,21,07,46,0.00
2006,02,21,07,47,0.00
2006,02,21,07,48,0.00
2006,02,21,07,49,0.00
2006,02,21,07,50,0.00
2006,02,21,07,51,0.00
2006,02,21,07,52,0.00
2006,02,21,07,53,0.00
2006,02,21,07,54,0.00
2006,02,21,07,55,0.00
2006,02,21,07,56,0.00
2006,02,21,07,57,0.10
2006,02,21,07,58,0.10
2006,02,21,07,59,0.10
2006,02,21,08,00,0.10
2006,02,21,08,01,0.10
2006,02,21,08,02,0.20
2006,02,21,08,03,0.20
2006,02,21,08,04,0.20
2006,02,21,08,05,0.20
2006,02,21,08,06,0.20
2006,02,21,08,07,0.20
2006,02,21,08,08,0.20
2006,02,21,08,09,0.20
2006,02,21,08,10,0.20
2006,02,21,08,11,0.20
2006,02,21,08,12,0.20
2006,02,21,08,13,0.30
2006,02,21,08,14,0.30
2006,02,21,08,15,0.30
2006,02,21,08,16,0.30
2006,02,21,08,17,0.40
2006,02,21,08,18,0.40
2006,02,21,08,19,0.40
2006,02,21,08,20,0.50
2006,02,21,08,21,0.50
2006,02,21,08,22,0.60
2006,02,21,08,23,0.60
2006,02,21,08,24,0.60
2006,02,21,08,25,0.70
2006,02,21,08,26,0.70
2006,02,21,08,27,0.70
2006,02,21,08,28,0.80
2006,02,21,08,29,0.80
2006,02,21,08,30,0.90
2006,02,21,08,31,1.00
2006,02,21,08,32,1.00
2006,02,21,08,33,1.10
2006,02,21,08,34,1.20
2006,02,21,08,35,1.20
2006,02,21,08,36,1.20
2006,02,21,08,37,1.30
2006,02,21,08,38,1.30
2006,02,21,08,39,1.30
2006,02,21,08,40,1.30
2006,02,21,08,41,1.40
2006,02,21,08,42,1.50
2006,02,21,08,43,1.60
2006,02,21,08,44,1.70
2006,02,21,08,45,1.80
2006,02,21,08,46,1.80
2006,02,21,08,47,1.90
2006,02,21,08,48,1.90
2006,02,21,08,49,1.90
2006,02,21,08,50,2.00
2006,02,21,08,51,2.00
2006,02,21,08,52,2.00
2006,02,21,08,53,2.10
2006,02,21,08,54,2.10
2006,02,21,08,55,2.20
2006,02,21,08,56,2.20
2006,02,21,08,57,2.30
2006,02,21,08,58,2.40
2006,02,21,08,59,2.40
2006,02,21,09,00,2.50
2006,02,21,09,01,2.60
2006,02,21,09,02,2.70
2006,02,21,09,03,2.70
2006,02,21,09,04,2.80
2006,02,21,09,05,2.90
2006,02,21,09,06,2.90
2006,02,21,09,07,3.00
2006,02,21,09,08,3.00
2006,02,21,09,09,3.10
2006,02,21,09,10,3.20
2006,02,21,09,11,3.30
2006,02,21,09,12,3.30
2006,02,21,09,13,3.30
2006,02,21,09,14,3.30
2006,02,21,09,15,3.30
2006,02,21,09,16,3.30
2006,02,21,09,17,3.40
2006,02,21,09,18,3.50
2006,02,21,09,19,3.50
2006,02,21,09,20,3.50
2006,02,21,09,21,3.50
2006,02,21,09,22,3.50
2006,02,21,09,23,3.40
2006,02,21,09,24,3.40
2006,02,21,09,25,3.40
2006,02,21,09,26,3.40
2006,02,21,09,27,3.40
2006,02,21,09,28,3.40
2006,02,21,09,29,3.30
2006,02,21,09,30,3.30
2006,02,21,09,31,3.30
2006,02,21,09,32,3.30
2006,02,21,09,33,3.20
2006,02,21,09,34,3.20
2006,02,21,09,35,3.20
2006,02,21,09,36,3.20
2006,02,21,09,37,3.20
2006,02,21,09,38,3.20
2006,02,21,09,39,3.20
2006,02,21,09,40,3.20
2006,02,21,09,41,3.20
2006,02,21,09,42,3.20
2006,02,21,09,43,3.20
2006,02,21,09,44,3.20
2006,02,21,09,45,3.20
2006,02,21,09,46,3.30
2006,02,21,09,47,3.30
2006,02,21,09,48,3.30
2006,02,21,09,49,3.40
2006,02,21,09,50,3.40
2006,02,21,09,51,3.40
2006,02,21,09,52,3.40
2006,02,21,09,53,3.50
2006,02,21,09,54,3.50
2006,02,21,09,55,3.50
2006,02,21,09,56,3.50
2006,02,21,09,57,3.50
2006,02,21,09,58,3.60
2006,02,21,09,59,3.60
2006,02,21,10,00,3.60
2006,02,21,10,01,3.60
2006,02,21,10,02,3.60
2006,02,21,10,03,3.70
2006,02,21,10,04,3.70
2006,02,21,10,05,3.70
2006,02,21,10,06,3.80
2006,02,21,10,07,3.80
2006,02,21,10,08,3.80
2006,02,21,10,09,3.80
2006,02,21,10,10,3.90
2006,02,21,10,11,3.90
2006,02,21,10,12,3.90
2006,02,21,10,13,3.90
2006,02,21,10,14,3.90
2006,02,21,10,15,3.90
2006,02,21,10,16,3.90
